Joplin, MO

5:08 AM CDT on October 16, 2019 (GMT -0500)
Joplin Regional

Weather History for KJLN - August, 2019

Change the Weather History Date:

Tuesday, August 20, 2019

  Actual Average Record
Temperature  
Mean Temperature 85 °F 80 °F  
Max Temperature 93 °F 91 °F 101 °F (2003)
Min Temperature 77 °F 68 °F 50 °F (1950)
Degree Days  
Heating Degree Days 0 0  
Month to date heating degree days 0 0  
Since 1 June heating degree days 1 5  
Since 1 July heating degree days 0 0  
Cooling Degree Days 20 15  
Month to date cooling degree days 289 311  
Year to date cooling degree days 1140 1282  
Since 1 June cooling degree days 987 1102  
Growing Degree Days 35 (Base 50)    
Moisture  
Dew Point 74 °F    
Average Humidity 70    
Maximum Humidity 88    
Minimum Humidity 52    
Precipitation  
Precipitation 0.00 in 0.10 in 2.45 in (2009)
Month to date precipitation 3.18 2.04  
Year to date precipitation 46.09 29.66  
Sea Level Pressure  
Sea Level Pressure 29.98 in    
Wind  
Wind Speed 8 mph ()    
Max Wind Speed 17 mph    
Max Gust Speed 24 mph    
Visibility 10.0 miles    
Events      
T = Trace of Precipitation, MM = Missing Value Source: Averaged Metar Reports

Daily Weather History Graph

Daily Weather History Graph

Search for Another Location

Airport or City:

Astronomy

Aug. 20, 2019 Rise Set
Actual Time 6:38 AM CDT 8:03 PM CDT
Civil Twilight 6:11 AM CDT 8:30 PM CDT
Nautical Twilight 5:38 AM CDT 9:03 PM CDT
Astronomical Twilight 5:03 AM CDT 9:37 PM CDT
Moon 10:59 PM CDT (8/20) 11:11 AM CDT (8/20)
Length of Visible Light 14h 19m
Length of Day
13h 25m
Waning Gibbous, 77% of the Moon is Illuminated
Aug 20
Waning Gibbous
Aug 23
Last Quarter
Aug 30
New
Sep 5
First Quarter
Sep 13
Full

Hourly Weather History & Observations

Time (CDT) Temp. Heat Index Dew Point Humidity Pressure Visibility Wind Dir Wind Speed Gust Speed Precip Events Conditions
12:53 AM 81.0 °F 84.9 °F 71.1 °F 72% 29.97 in 10.0 mi SSE 9.2 mph - N/A   Clear
1:53 AM 81.0 °F 84.9 °F 71.1 °F 72% 29.96 in 10.0 mi SSE 11.5 mph - N/A   Clear
2:53 AM 81.0 °F 85.8 °F 73.0 °F 77% 29.97 in 10.0 mi South 9.2 mph - N/A   Clear
3:53 AM 80.1 °F 84.2 °F 73.0 °F 79% 29.97 in 10.0 mi South 10.4 mph - N/A   Clear
4:53 AM 79.0 °F - 73.0 °F 82% 29.96 in 10.0 mi South 10.4 mph - N/A   Clear
5:53 AM 77.0 °F - 73.0 °F 88% 29.96 in 10.0 mi South 8.1 mph - N/A   Clear
6:53 AM 77.0 °F - 72.0 °F 84% 29.98 in 10.0 mi SSW 4.6 mph - N/A   Clear
7:53 AM 81.0 °F 86.2 °F 73.9 °F 79% 30.00 in 10.0 mi SSW 4.6 mph - N/A   Clear
8:53 AM 84.0 °F 91.9 °F 75.0 °F 74% 30.02 in 10.0 mi SSW 4.6 mph - N/A   Clear
9:53 AM 86.0 °F 95.1 °F 75.0 °F 70% 30.01 in 10.0 mi SSW 12.7 mph - N/A   Clear
10:53 AM 88.0 °F 97.5 °F 75.0 °F 65% 30.00 in 10.0 mi SW 10.4 mph - N/A   Clear
11:53 AM 90.0 °F 102.5 °F 77.0 °F 65% 29.99 in 10.0 mi SW 15.0 mph - N/A   Clear
12:53 PM 91.0 °F 102.9 °F 75.9 °F 61% 29.99 in 10.0 mi SSW 12.7 mph - N/A   Clear
2:53 PM 93.0 °F 104.6 °F 75.0 °F 56% 30.00 in 10.0 mi WSW 9.2 mph - N/A   Clear
3:53 PM 93.0 °F 103.2 °F 73.9 °F 54% 29.97 in 10.0 mi WSW 5.8 mph - N/A   Clear
4:53 PM 93.0 °F 103.2 °F 73.9 °F 54% 29.95 in 10.0 mi West 8.1 mph - N/A   Clear
5:53 PM 91.9 °F 103.9 °F 75.9 °F 59% 29.95 in 10.0 mi WSW 5.8 mph - N/A   Clear
6:53 PM 90.0 °F 102.5 °F 77.0 °F 65% 29.95 in 10.0 mi South 5.8 mph - N/A   Clear
7:53 PM 87.1 °F 97.3 °F 75.9 °F 69% 29.95 in 10.0 mi SSE 5.8 mph - N/A   Clear
8:53 PM 82.9 °F 90.8 °F 75.9 °F 79% 29.94 in 10.0 mi SSE 4.6 mph - N/A   Clear
9:53 PM 84.0 °F 89.6 °F 72.0 °F 67% 29.99 in 10.0 mi SE 9.2 mph - N/A   Clear
10:53 PM 82.0 °F 85.5 °F 69.1 °F 65% 29.99 in 10.0 mi SSE 13.8 mph - N/A   Clear
11:53 PM 80.1 °F 82.9 °F 69.1 °F 69% 29.98 in 10.0 mi SSE 10.4 mph - N/A   Clear